Time,TemperatureF,DewpointF,PressureIn,WindDirection,WindDirectionDegrees,WindSpeedMPH,WindSpeedGustMPH,Humidity,HourlyPrecipIn,Conditions,Clouds,dailyrainin,SoftwareType,DateUTC
2013-08-31 00:02:00,73.8,72.0,29.83,SW,236,0.0,0.0,94,0.00,,,0.00,Wunderground v.1.15,2013-08-31 05:02:00,
2013-08-31 00:08:00,73.7,71.9,29.83,SW,236,0.0,0.0,94,0.00,,,0.00,Wunderground v.1.15,2013-08-31 05:08:00,
2013-08-31 00:14:00,73.6,71.8,29.83,SW,236,0.0,0.0,94,0.00,,,0.00,Wunderground v.1.15,2013-08-31 05:14:00,
2013-08-31 00:20:00,73.5,71.7,29.83,SW,236,0.0,0.0,94,0.00,,,0.00,Wunderground v.1.15,2013-08-31 05:20:00,
2013-08-31 00:25:00,73.3,71.5,29.84,SW,236,0.0,0.0,94,0.00,,,0.00,Wunderground v.1.15,2013-08-31 05:25:00,
2013-08-31 00:31:00,73.3,71.5,29.84,SW,236,0.0,0.0,94,0.00,,,0.00,Wunderground v.1.15,2013-08-31 05:31:00,
2013-08-31 00:37:00,73.2,71.4,29.84,SW,236,0.0,0.0,94,0.00,,,0.00,Wunderground v.1.15,2013-08-31 05:37:00,
2013-08-31 00:43:00,73.1,71.3,29.84,SW,236,0.0,1.0,94,0.00,,,0.00,Wunderground v.1.15,2013-08-31 05:43:00,
2013-08-31 00:48:00,73.0,71.2,29.84,SW,235,0.0,1.0,94,0.00,,,0.00,Wunderground v.1.15,2013-08-31 05:48:00,
2013-08-31 00:54:00,72.8,71.0,29.84,SW,236,0.0,0.0,94,0.00,,,0.00,Wunderground v.1.15,2013-08-31 05:54:00,
2013-08-31 01:00:00,72.7,70.9,29.84,SW,235,0.0,0.0,94,0.00,,,0.00,Wunderground v.1.15,2013-08-31 06:00:00,
2013-08-31 01:06:00,72.7,70.9,29.84,SW,236,0.0,0.0,94,0.00,,,0.00,Wunderground v.1.15,2013-08-31 06:06:00,
2013-08-31 01:11:00,72.6,70.8,29.84,SW,235,0.0,0.0,94,0.00,,,0.00,Wunderground v.1.15,2013-08-31 06:11:00,
2013-08-31 01:17:00,72.5,70.7,29.84,SW,236,0.0,0.0,94,0.00,,,0.00,Wunderground v.1.15,2013-08-31 06:17:00,
2013-08-31 01:23:00,72.3,70.5,29.85,SW,236,0.0,0.0,94,0.00,,,0.00,Wunderground v.1.15,2013-08-31 06:23:00,
2013-08-31 01:29:00,72.2,70.4,29.85,SW,236,0.0,0.0,94,0.00,,,0.00,Wunderground v.1.15,2013-08-31 06:29:00,
2013-08-31 01:34:00,72.3,70.8,29.85,SW,235,0.0,0.0,95,0.00,,,0.00,Wunderground v.1.15,2013-08-31 06:34:00,
2013-08-31 01:40:00,72.2,70.7,29.85,SW,236,0.0,0.0,95,0.00,,,0.00,Wunderground v.1.15,2013-08-31 06:40:00,
2013-08-31 01:46:00,72.0,70.5,29.85,SW,236,0.0,0.0,95,0.00,,,0.00,Wunderground v.1.15,2013-08-31 06:46:00,
2013-08-31 01:52:00,72.0,70.5,29.84,SW,236,0.0,0.0,95,0.00,,,0.00,Wunderground v.1.15,2013-08-31 06:52:00,
2013-08-31 01:57:00,71.8,70.3,29.84,SW,236,0.0,0.0,95,0.00,,,0.00,Wunderground v.1.15,2013-08-31 06:57:00,
2013-08-31 02:02:00,71.7,70.2,29.84,SW,235,0.0,0.0,95,0.00,,,0.00,Wunderground v.1.15,2013-08-31 07:02:00,
2013-08-31 02:07:00,71.4,69.9,29.84,SW,236,0.0,0.0,95,0.00,,,0.00,Wunderground v.1.15,2013-08-31 07:07:00,
2013-08-31 02:12:00,71.4,69.9,29.84,SW,236,0.0,0.0,95,0.00,,,0.00,Wunderground v.1.15,2013-08-31 07:12:00,
2013-08-31 02:17:00,71.3,69.8,29.84,SW,236,0.0,0.0,95,0.00,,,0.00,Wunderground v.1.15,2013-08-31 07:17:00,
2013-08-31 02:22:00,71.3,69.8,29.84,SW,236,0.0,0.0,95,0.00,,,0.00,Wunderground v.1.15,2013-08-31 07:22:00,
2013-08-31 02:27:00,71.3,70.1,29.84,SW,236,0.0,0.0,96,0.00,,,0.00,Wunderground v.1.15,2013-08-31 07:27:00,
2013-08-31 02:32:00,71.3,70.1,29.84,SW,236,0.0,0.0,96,0.00,,,0.00,Wunderground v.1.15,2013-08-31 07:32:00,
2013-08-31 02:37:00,71.3,70.1,29.84,SW,235,0.0,0.0,96,0.00,,,0.00,Wunderground v.1.15,2013-08-31 07:37:00,
2013-08-31 02:42:00,71.2,69.7,29.84,SW,236,0.0,0.0,95,0.00,,,0.00,Wunderground v.1.15,2013-08-31 07:42:00,
2013-08-31 02:47:00,71.2,70.0,29.84,SW,235,0.0,0.0,96,0.00,,,0.00,Wunderground v.1.15,2013-08-31 07:47:00,
2013-08-31 02:52:00,71.1,69.9,29.84,SW,236,0.0,0.0,96,0.00,,,0.00,Wunderground v.1.15,2013-08-31 07:52:00,
2013-08-31 02:57:00,71.1,69.9,29.84,SW,236,0.0,0.0,96,0.00,,,0.00,Wunderground v.1.15,2013-08-31 07:57:00,
2013-08-31 03:02:00,71.0,69.8,29.84,SW,236,0.0,0.0,96,0.00,,,0.00,Wunderground v.1.15,2013-08-31 08:02:00,
2013-08-31 03:07:00,71.0,69.8,29.84,SW,236,0.0,0.0,96,0.00,,,0.00,Wunderground v.1.15,2013-08-31 08:07:00,
2013-08-31 03:12:00,70.9,69.7,29.84,SW,236,0.0,0.0,96,0.00,,,0.00,Wunderground v.1.15,2013-08-31 08:12:00,
2013-08-31 03:17:00,70.9,69.7,29.84,SW,235,0.0,0.0,96,0.00,,,0.00,Wunderground v.1.15,2013-08-31 08:17:00,
2013-08-31 03:22:00,70.9,69.7,29.84,SW,236,0.0,0.0,96,0.00,,,0.00,Wunderground v.1.15,2013-08-31 08:22:00,
2013-08-31 03:27:00,70.9,69.7,29.84,SW,235,0.0,0.0,96,0.00,,,0.00,Wunderground v.1.15,2013-08-31 08:27:00,
2013-08-31 03:32:00,70.8,69.6,29.84,SW,236,0.0,0.0,96,0.00,,,0.00,Wunderground v.1.15,2013-08-31 08:32:00,
2013-08-31 03:37:00,70.7,69.5,29.84,SW,236,0.0,0.0,96,0.00,,,0.00,Wunderground v.1.15,2013-08-31 08:37:00,
2013-08-31 03:42:00,70.6,69.4,29.84,SW,236,0.0,0.0,96,0.00,,,0.00,Wunderground v.1.15,2013-08-31 08:42:00,
2013-08-31 03:47:00,70.5,69.3,29.84,SW,236,0.0,0.0,96,0.00,,,0.00,Wunderground v.1.15,2013-08-31 08:47:00,
2013-08-31 03:52:00,70.5,69.3,29.84,SW,236,0.0,0.0,96,0.00,,,0.00,Wunderground v.1.15,2013-08-31 08:52:00,
2013-08-31 03:57:00,70.4,69.2,29.84,SW,235,0.0,0.0,96,0.00,,,0.00,Wunderground v.1.15,2013-08-31 08:57:00,
2013-08-31 04:02:00,70.5,69.3,29.84,West,270,0.0,0.0,96,0.00,,,0.00,Wunderground v.1.15,2013-08-31 09:02:00,
2013-08-31 04:07:00,70.5,69.3,29.84,West,269,0.0,0.0,96,0.00,,,0.00,Wunderground v.1.15,2013-08-31 09:07:00,
2013-08-31 04:12:00,70.5,69.3,29.84,West,270,0.0,0.0,96,0.00,,,0.00,Wunderground v.1.15,2013-08-31 09:12:00,
2013-08-31 04:17:00,70.4,69.2,29.84,West,270,0.0,0.0,96,0.00,,,0.00,Wunderground v.1.15,2013-08-31 09:17:00,
2013-08-31 04:22:00,70.3,69.1,29.84,West,270,0.0,0.0,96,0.00,,,0.00,Wunderground v.1.15,2013-08-31 09:22:00,
2013-08-31 04:27:00,70.2,69.0,29.83,West,270,0.0,0.0,96,0.00,,,0.00,Wunderground v.1.15,2013-08-31 09:27:00,
2013-08-31 04:32:00,70.1,68.9,29.83,West,270,0.0,0.0,96,0.00,,,0.00,Wunderground v.1.15,2013-08-31 09:32:00,
2013-08-31 04:37:00,70.0,68.8,29.83,West,269,0.0,0.0,96,0.00,,,0.00,Wunderground v.1.15,2013-08-31 09:37:00,
2013-08-31 04:42:00,70.0,68.8,29.83,West,270,0.0,0.0,96,0.00,,,0.00,Wunderground v.1.15,2013-08-31 09:42:00,
2013-08-31 04:47:00,69.9,68.7,29.83,West,270,0.0,0.0,96,0.00,,,0.00,Wunderground v.1.15,2013-08-31 09:47:00,
2013-08-31 04:52:00,69.8,68.6,29.83,West,270,0.0,0.0,96,0.00,,,0.00,Wunderground v.1.15,2013-08-31 09:52:00,
2013-08-31 04:57:00,69.7,68.5,29.83,West,270,0.0,0.0,96,0.00,,,0.00,Wunderground v.1.15,2013-08-31 09:57:00,
2013-08-31 05:02:00,69.8,68.6,29.83,West,270,0.0,0.0,96,0.00,,,0.00,Wunderground v.1.15,2013-08-31 10:02:00,
2013-08-31 05:07:00,69.8,68.6,29.83,West,270,0.0,0.0,96,0.00,,,0.00,Wunderground v.1.15,2013-08-31 10:07:00,
2013-08-31 05:12:00,69.8,68.6,29.83,West,270,0.0,0.0,96,0.00,,,0.00,Wunderground v.1.15,2013-08-31 10:12:00,
2013-08-31 05:17:00,69.8,68.9,29.83,West,270,0.0,0.0,97,0.00,,,0.00,Wunderground v.1.15,2013-08-31 10:17:00,
2013-08-31 05:22:00,69.7,68.5,29.83,West,269,0.0,0.0,96,0.00,,,0.00,Wunderground v.1.15,2013-08-31 10:22:00,
2013-08-31 05:27:00,69.6,68.4,29.83,West,269,0.0,0.0,96,0.00,,,0.00,Wunderground v.1.15,2013-08-31 10:27:00,
2013-08-31 05:32:00,69.6,68.4,29.83,West,270,0.0,0.0,96,0.00,,,0.00,Wunderground v.1.15,2013-08-31 10:32:00,
2013-08-31 05:37:00,69.5,68.3,29.84,West,270,0.0,0.0,96,0.00,,,0.00,Wunderground v.1.15,2013-08-31 10:37:00,
2013-08-31 05:42:00,69.4,68.5,29.84,West,270,0.0,0.0,97,0.00,,,0.00,Wunderground v.1.15,2013-08-31 10:42:00,
2013-08-31 05:47:00,69.4,68.5,29.84,West,270,0.0,0.0,97,0.00,,,0.00,Wunderground v.1.15,2013-08-31 10:47:00,
2013-08-31 05:52:00,69.3,68.4,29.84,West,270,0.0,0.0,97,0.00,,,0.00,Wunderground v.1.15,2013-08-31 10:52:00,
2013-08-31 05:57:00,69.2,68.0,29.84,West,270,0.0,0.0,96,0.00,,,0.00,Wunderground v.1.15,2013-08-31 10:57:00,
2013-08-31 06:02:00,69.0,67.8,29.84,West,270,0.0,0.0,96,0.00,,,0.00,Wunderground v.1.15,2013-08-31 11:02:00,
2013-08-31 06:07:00,68.9,67.7,29.84,West,269,0.0,0.0,96,0.00,,,0.00,Wunderground v.1.15,2013-08-31 11:07:00,
2013-08-31 06:12:00,68.9,68.0,29.84,West,269,0.0,0.0,97,0.00,,,0.00,Wunderground v.1.15,2013-08-31 11:12:00,
2013-08-31 06:17:00,69.0,68.1,29.84,West,270,0.0,0.0,97,0.00,,,0.00,Wunderground v.1.15,2013-08-31 11:17:00,
2013-08-31 06:22:00,68.9,68.0,29.84,West,270,0.0,0.0,97,0.00,,,0.00,Wunderground v.1.15,2013-08-31 11:22:00,
2013-08-31 06:27:00,68.6,67.7,29.84,West,269,0.0,0.0,97,0.00,,,0.00,Wunderground v.1.15,2013-08-31 11:27:00,
2013-08-31 06:32:00,68.9,68.0,29.84,West,270,0.0,0.0,97,0.00,,,0.00,Wunderground v.1.15,2013-08-31 11:32:00,
2013-08-31 06:37:00,69.0,68.1,29.84,West,269,0.0,0.0,97,0.00,,,0.00,Wunderground v.1.15,2013-08-31 11:37:00,
2013-08-31 06:42:00,68.9,68.0,29.84,West,270,0.0,0.0,97,0.00,,,0.00,Wunderground v.1.15,2013-08-31 11:42:00,
2013-08-31 06:47:00,68.9,68.0,29.85,West,270,0.0,0.0,97,0.00,,,0.00,Wunderground v.1.15,2013-08-31 11:47:00,
2013-08-31 06:52:00,68.9,68.0,29.85,West,270,0.0,0.0,97,0.00,,,0.00,Wunderground v.1.15,2013-08-31 11:52:00,
2013-08-31 06:57:00,68.9,68.0,29.84,West,269,0.0,0.0,97,0.00,,,0.00,Wunderground v.1.15,2013-08-31 11:57:00,
2013-08-31 07:02:00,68.9,68.0,29.85,West,270,0.0,0.0,97,0.00,,,0.00,Wunderground v.1.15,2013-08-31 12:02:00,
2013-08-31 07:07:00,68.9,68.0,29.85,West,270,0.0,0.0,97,0.00,,,0.00,Wunderground v.1.15,2013-08-31 12:07:00,
2013-08-31 07:12:00,69.0,68.1,29.85,West,270,0.0,0.0,97,0.00,,,0.00,Wunderground v.1.15,2013-08-31 12:12:00,
2013-08-31 07:17:00,69.0,68.1,29.85,West,270,0.0,0.0,97,0.00,,,0.00,Wunderground v.1.15,2013-08-31 12:17:00,
2013-08-31 07:23:00,69.1,68.2,29.85,West,270,0.0,0.0,97,0.00,,,0.00,Wunderground v.1.15,2013-08-31 12:23:00,
2013-08-31 07:29:00,69.2,68.3,29.85,West,270,0.0,0.0,97,0.00,,,0.00,Wunderground v.1.15,2013-08-31 12:29:00,
2013-08-31 07:34:00,69.3,68.4,29.85,West,270,0.0,0.0,97,0.00,,,0.00,Wunderground v.1.15,2013-08-31 12:34:00,
2013-08-31 07:40:00,69.7,68.8,29.85,West,270,0.0,0.0,97,0.00,,,0.00,Wunderground v.1.15,2013-08-31 12:40:00,
2013-08-31 07:46:00,70.2,69.3,29.86,West,270,0.0,0.0,97,0.00,,,0.00,Wunderground v.1.15,2013-08-31 12:46:00,
2013-08-31 07:52:00,70.7,69.8,29.86,West,269,0.0,0.0,97,0.00,,,0.00,Wunderground v.1.15,2013-08-31 12:52:00,
2013-08-31 07:57:00,71.2,70.3,29.86,West,269,0.0,0.0,97,0.00,,,0.00,Wunderground v.1.15,2013-08-31 12:57:00,
2013-08-31 08:18:00,73.2,71.4,29.86,West,270,0.0,0.0,94,0.00,,,0.00,Wunderground v.1.15,2013-08-31 13:18:00,
2013-08-31 08:24:00,74.2,72.4,29.86,West,269,0.0,0.0,94,0.00,,,0.00,Wunderground v.1.15,2013-08-31 13:24:00,
2013-08-31 08:29:00,75.2,73.0,29.86,West,269,0.0,0.0,93,0.00,,,0.00,Wunderground v.1.15,2013-08-31 13:29:00,
2013-08-31 08:35:00,76.7,73.5,29.86,West,270,0.0,0.0,90,0.00,,,0.00,Wunderground v.1.15,2013-08-31 13:35:00,
2013-08-31 08:41:00,76.9,73.4,29.87,West,270,0.0,0.0,89,0.00,,,0.00,Wunderground v.1.15,2013-08-31 13:41:00,
2013-08-31 08:47:00,77.8,74.3,29.86,West,270,0.0,0.0,89,0.00,,,0.00,Wunderground v.1.15,2013-08-31 13:47:00,
2013-08-31 08:52:00,78.7,74.2,29.86,West,264,0.0,1.0,86,0.00,,,0.00,Wunderground v.1.15,2013-08-31 13:52:00,
2013-08-31 08:57:00,79.3,74.0,29.86,West,273,1.0,3.0,84,0.00,,,0.00,Wunderground v.1.15,2013-08-31 13:57:00,
2013-08-31 09:02:00,79.7,74.1,29.86,NW,307,0.0,3.0,83,0.00,,,0.00,Wunderground v.1.15,2013-08-31 14:02:00,
2013-08-31 09:07:00,80.3,74.3,29.86,WSW,248,0.0,3.0,82,0.00,,,0.00,Wunderground v.1.15,2013-08-31 14:07:00,
2013-08-31 09:11:00,80.9,74.5,29.86,SW,232,2.0,3.0,81,0.00,,,0.00,Wunderground v.1.15,2013-08-31 14:11:00,
2013-08-31 09:17:00,81.5,74.4,29.86,WSW,245,2.0,4.0,79,0.00,,,0.00,Wunderground v.1.15,2013-08-31 14:17:00,
2013-08-31 09:22:00,82.0,73.7,29.86,WSW,252,1.0,3.0,76,0.00,,,0.00,Wunderground v.1.15,2013-08-31 14:22:00,
2013-08-31 09:27:00,82.4,73.7,29.86,West,261,3.0,4.0,75,0.00,,,0.00,Wunderground v.1.15,2013-08-31 14:27:00,
2013-08-31 09:31:00,82.9,73.8,29.86,SW,232,2.0,4.0,74,0.00,,,0.00,Wunderground v.1.15,2013-08-31 14:31:00,
2013-08-31 09:37:00,83.4,73.4,29.86,WSW,237,4.0,5.0,72,0.00,,,0.00,Wunderground v.1.15,2013-08-31 14:37:00,
2013-08-31 09:42:00,83.9,73.5,29.86,West,281,3.0,4.0,71,0.00,,,0.00,Wunderground v.1.15,2013-08-31 14:42:00,
2013-08-31 09:47:00,84.2,73.3,29.86,West,269,1.0,5.0,70,0.00,,,0.00,Wunderground v.1.15,2013-08-31 14:47:00,
2013-08-31 09:52:00,84.6,72.0,29.86,WNW,285,6.0,7.0,66,0.00,,,0.00,Wunderground v.1.15,2013-08-31 14:52:00,
2013-08-31 09:57:00,85.0,72.4,29.86,West,263,4.0,7.0,66,0.00,,,0.00,Wunderground v.1.15,2013-08-31 14:57:00,
2013-08-31 10:02:00,85.3,72.2,29.86,SW,222,3.0,4.0,65,0.00,,,0.00,Wunderground v.1.15,2013-08-31 15:02:00,
2013-08-31 10:07:00,85.6,72.5,29.86,West,273,4.0,6.0,65,0.00,,,0.00,Wunderground v.1.15,2013-08-31 15:07:00,
2013-08-31 10:12:00,86.0,72.4,29.86,West,270,2.0,6.0,64,0.00,,,0.00,Wunderground v.1.15,2013-08-31 15:12:00,
2013-08-31 10:17:00,86.2,73.0,29.86,SW,221,2.0,6.0,65,0.00,,,0.00,Wunderground v.1.15,2013-08-31 15:17:00,
2013-08-31 10:22:00,86.8,73.2,29.86,SW,217,4.0,5.0,64,0.00,,,0.00,Wunderground v.1.15,2013-08-31 15:22:00,
2013-08-31 10:26:00,87.0,72.4,29.85,WNW,291,4.0,5.0,62,0.00,,,0.00,Wunderground v.1.15,2013-08-31 15:26:00,
2013-08-31 10:31:00,87.2,72.1,29.85,WSW,246,3.0,5.0,61,0.00,,,0.00,Wunderground v.1.15,2013-08-31 15:31:00,
2013-08-31 10:36:00,87.3,72.2,29.85,NW,310,4.0,9.0,61,0.00,,,0.00,Wunderground v.1.15,2013-08-31 15:36:00,
2013-08-31 10:42:00,87.5,71.9,29.85,WSW,244,3.0,6.0,60,0.00,,,0.00,Wunderground v.1.15,2013-08-31 15:42:00,
2013-08-31 10:47:00,87.7,72.1,29.84,SW,217,4.0,6.0,60,0.00,,,0.00,Wunderground v.1.15,2013-08-31 15:47:00,
2013-08-31 10:53:00,87.9,72.3,29.84,SSW,207,3.0,4.0,60,0.00,,,0.00,Wunderground v.1.15,2013-08-31 15:53:00,
2013-08-31 10:59:00,88.4,72.7,29.84,West,278,5.0,5.0,60,0.00,,,0.00,Wunderground v.1.15,2013-08-31 15:59:00,
2013-08-31 11:05:00,88.8,73.6,29.84,West,263,3.0,5.0,61,0.00,,,0.00,Wunderground v.1.15,2013-08-31 16:05:00,
2013-08-31 11:11:00,89.1,72.9,29.84,West,263,4.0,4.0,59,0.00,,,0.00,Wunderground v.1.15,2013-08-31 16:11:00,
2013-08-31 11:16:00,89.2,73.0,29.83,West,274,5.0,6.0,59,0.00,,,0.00,Wunderground v.1.15,2013-08-31 16:16:00,
2013-08-31 11:21:00,89.3,72.1,29.83,SW,232,5.0,8.0,57,0.00,,,0.00,Wunderground v.1.15,2013-08-31 16:21:00,
2013-08-31 11:26:00,89.5,72.3,29.83,SW,224,6.0,8.0,57,0.00,,,0.00,Wunderground v.1.15,2013-08-31 16:26:00,
2013-08-31 11:31:00,89.9,73.1,29.83,West,278,5.0,5.0,58,0.00,,,0.00,Wunderground v.1.15,2013-08-31 16:31:00,
2013-08-31 11:36:00,90.2,73.4,29.83,WSW,249,7.0,10.0,58,0.00,,,0.00,Wunderground v.1.15,2013-08-31 16:36:00,
2013-08-31 11:41:00,90.5,73.7,29.83,West,264,2.0,4.0,58,0.00,,,0.00,Wunderground v.1.15,2013-08-31 16:41:00,
2013-08-31 11:46:00,91.1,74.3,29.83,West,259,5.0,8.0,58,0.00,,,0.00,Wunderground v.1.15,2013-08-31 16:46:00,
2013-08-31 11:51:00,91.4,75.1,29.83,SW,232,5.0,5.0,59,0.00,,,0.00,Wunderground v.1.15,2013-08-31 16:51:00,
2013-08-31 11:56:00,91.3,72.9,29.83,WNW,284,2.0,8.0,55,0.00,,,0.00,Wunderground v.1.15,2013-08-31 16:56:00,
2013-08-31 12:01:00,91.6,73.7,29.82,WSW,245,2.0,9.0,56,0.00,,,0.00,Wunderground v.1.15,2013-08-31 17:01:00,
2013-08-31 12:06:00,92.1,73.6,29.82,West,264,4.0,9.0,55,0.00,,,0.00,Wunderground v.1.15,2013-08-31 17:06:00,
2013-08-31 12:11:00,92.2,73.2,29.82,WSW,243,4.0,5.0,54,0.00,,,0.00,Wunderground v.1.15,2013-08-31 17:11:00,
2013-08-31 12:16:00,92.3,72.7,29.82,WSW,256,4.0,6.0,53,0.00,,,0.00,Wunderground v.1.15,2013-08-31 17:16:00,
2013-08-31 12:21:00,92.6,73.0,29.82,SSW,208,2.0,5.0,53,0.00,,,0.00,Wunderground v.1.15,2013-08-31 17:21:00,
2013-08-31 12:26:00,92.9,73.8,29.82,West,275,3.0,6.0,54,0.00,,,0.00,Wunderground v.1.15,2013-08-31 17:26:00,
2013-08-31 12:31:00,93.0,72.2,29.81,WSW,256,8.0,8.0,51,0.00,,,0.00,Wunderground v.1.15,2013-08-31 17:31:00,
2013-08-31 12:36:00,93.0,72.2,29.81,West,260,3.0,8.0,51,0.00,,,0.00,Wunderground v.1.15,2013-08-31 17:36:00,
2013-08-31 12:41:00,93.2,73.0,29.81,SSW,213,2.0,6.0,52,0.00,,,0.00,Wunderground v.1.15,2013-08-31 17:41:00,
2013-08-31 12:46:00,93.6,72.2,29.81,WSW,253,3.0,7.0,50,0.00,,,0.00,Wunderground v.1.15,2013-08-31 17:46:00,
2013-08-31 12:51:00,93.8,72.9,29.80,WSW,252,3.0,5.0,51,0.00,,,0.00,Wunderground v.1.15,2013-08-31 17:51:00,
2013-08-31 12:56:00,94.3,72.8,29.81,SW,231,4.0,5.0,50,0.00,,,0.00,Wunderground v.1.15,2013-08-31 17:56:00,
2013-08-31 13:01:00,94.3,72.2,29.81,SW,218,3.0,6.0,49,0.00,,,0.00,Wunderground v.1.15,2013-08-31 18:01:00,
2013-08-31 13:06:00,94.5,71.8,29.80,West,277,3.0,6.0,48,0.00,,,0.00,Wunderground v.1.15,2013-08-31 18:06:00,
2013-08-31 13:11:00,94.8,72.7,29.80,WSW,239,4.0,7.0,49,0.00,,,0.00,Wunderground v.1.15,2013-08-31 18:11:00,
2013-08-31 13:16:00,94.9,70.9,29.80,SW,235,5.0,7.0,46,0.00,,,0.00,Wunderground v.1.15,2013-08-31 18:16:00,
2013-08-31 13:21:00,94.9,72.8,29.80,WNW,287,2.0,7.0,49,0.00,,,0.00,Wunderground v.1.15,2013-08-31 18:21:00,
2013-08-31 13:26:00,95.3,73.1,29.80,SW,217,3.0,7.0,49,0.00,,,0.00,Wunderground v.1.15,2013-08-31 18:26:00,
2013-08-31 13:31:00,95.5,72.7,29.80,WSW,253,3.0,4.0,48,0.00,,,0.00,Wunderground v.1.15,2013-08-31 18:31:00,
2013-08-31 13:36:00,95.6,72.2,29.80,West,267,4.0,8.0,47,0.00,,,0.00,Wunderground v.1.15,2013-08-31 18:36:00,
2013-08-31 13:41:00,95.5,73.3,29.80,West,279,3.0,4.0,49,0.00,,,0.00,Wunderground v.1.15,2013-08-31 18:41:00,
2013-08-31 13:46:00,95.5,71.4,29.80,WNW,298,3.0,9.0,46,0.00,,,0.00,Wunderground v.1.15,2013-08-31 18:46:00,
2013-08-31 13:51:00,95.7,72.9,29.80,WNW,292,2.0,5.0,48,0.00,,,0.00,Wunderground v.1.15,2013-08-31 18:51:00,
2013-08-31 13:56:00,95.8,71.7,29.80,NW,307,2.0,8.0,46,0.00,,,0.00,Wunderground v.1.15,2013-08-31 18:56:00,
2013-08-31 14:01:00,96.0,69.9,29.80,WNW,295,5.0,6.0,43,0.00,,,0.00,Wunderground v.1.15,2013-08-31 19:01:00,
2013-08-31 14:06:00,96.2,70.7,29.79,WNW,301,3.0,7.0,44,0.00,,,0.00,Wunderground v.1.15,2013-08-31 19:06:00,
2013-08-31 14:11:00,96.3,70.8,29.79,West,267,5.0,8.0,44,0.00,,,0.00,Wunderground v.1.15,2013-08-31 19:11:00,
2013-08-31 14:16:00,96.2,69.4,29.79,WSW,256,5.0,8.0,42,0.00,,,0.00,Wunderground v.1.15,2013-08-31 19:16:00,
2013-08-31 14:21:00,95.8,69.0,29.79,NW,305,7.0,7.0,42,0.00,,,0.00,Wunderground v.1.15,2013-08-31 19:21:00,
2013-08-31 14:26:00,95.7,71.0,29.79,WSW,255,4.0,10.0,45,0.00,,,0.00,Wunderground v.1.15,2013-08-31 19:26:00,
2013-08-31 14:31:00,96.0,71.2,29.79,West,263,3.0,6.0,45,0.00,,,0.00,Wunderground v.1.15,2013-08-31 19:31:00,
2013-08-31 14:36:00,96.1,71.3,29.79,North,354,2.0,8.0,45,0.00,,,0.00,Wunderground v.1.15,2013-08-31 19:36:00,
2013-08-31 14:41:00,96.3,71.5,29.78,West,281,3.0,4.0,45,0.00,,,0.00,Wunderground v.1.15,2013-08-31 19:41:00,
2013-08-31 14:46:00,96.5,71.0,29.78,West,278,1.0,5.0,44,0.00,,,0.00,Wunderground v.1.15,2013-08-31 19:46:00,
2013-08-31 14:51:00,97.1,72.2,29.78,SW,233,2.0,4.0,45,0.00,,,0.00,Wunderground v.1.15,2013-08-31 19:51:00,
2013-08-31 14:56:00,97.4,71.8,29.78,SSW,211,1.0,4.0,44,0.00,,,0.00,Wunderground v.1.15,2013-08-31 19:56:00,
2013-08-31 15:01:00,97.4,71.2,29.78,WNW,287,2.0,6.0,43,0.00,,,0.00,Wunderground v.1.15,2013-08-31 20:01:00,
2013-08-31 15:06:00,97.6,70.6,29.77,SSW,193,1.0,6.0,42,0.00,,,0.00,Wunderground v.1.15,2013-08-31 20:06:00,
2013-08-31 15:11:00,97.7,70.7,29.77,WSW,256,2.0,4.0,42,0.00,,,0.00,Wunderground v.1.15,2013-08-31 20:11:00,
2013-08-31 15:16:00,97.8,71.5,29.77,SW,221,2.0,5.0,43,0.00,,,0.00,Wunderground v.1.15,2013-08-31 20:16:00,
2013-08-31 15:21:00,97.9,72.9,29.77,SSW,198,2.0,5.0,45,0.00,,,0.00,Wunderground v.1.15,2013-08-31 20:21:00,
2013-08-31 15:26:00,97.5,70.5,29.77,NW,310,3.0,8.0,42,0.00,,,0.00,Wunderground v.1.15,2013-08-31 20:26:00,
2013-08-31 15:31:00,97.5,70.5,29.77,SW,225,2.0,5.0,42,0.00,,,0.00,Wunderground v.1.15,2013-08-31 20:31:00,
2013-08-31 15:36:00,97.7,71.4,29.77,SW,217,2.0,5.0,43,0.00,,,0.00,Wunderground v.1.15,2013-08-31 20:36:00,
2013-08-31 15:41:00,97.2,71.0,29.77,NW,305,2.0,5.0,43,0.00,,,0.00,Wunderground v.1.15,2013-08-31 20:41:00,
2013-08-31 15:46:00,96.4,70.9,29.77,West,281,1.0,8.0,44,0.00,,,0.00,Wunderground v.1.15,2013-08-31 20:46:00,
2013-08-31 15:51:00,96.6,71.1,29.77,WNW,284,6.0,6.0,44,0.00,,,0.00,Wunderground v.1.15,2013-08-31 20:51:00,
2013-08-31 15:56:00,96.8,71.3,29.77,WNW,298,2.0,6.0,44,0.00,,,0.00,Wunderground v.1.15,2013-08-31 20:56:00,
2013-08-31 16:01:00,96.7,71.2,29.76,West,262,3.0,4.0,44,0.00,,,0.00,Wunderground v.1.15,2013-08-31 21:01:00,
2013-08-31 16:06:00,96.6,69.7,29.77,WNW,298,2.0,7.0,42,0.00,,,0.00,Wunderground v.1.15,2013-08-31 21:06:00,
2013-08-31 16:11:00,96.4,70.9,29.77,NW,308,2.0,5.0,44,0.00,,,0.00,Wunderground v.1.15,2013-08-31 21:11:00,
2013-08-31 16:16:00,96.4,70.3,29.77,NW,316,2.0,5.0,43,0.00,,,0.00,Wunderground v.1.15,2013-08-31 21:16:00,
2013-08-31 16:21:00,96.1,70.7,29.76,NW,308,3.0,4.0,44,0.00,,,0.00,Wunderground v.1.15,2013-08-31 21:21:00,
2013-08-31 16:26:00,96.1,72.0,29.76,SW,236,1.0,4.0,46,0.00,,,0.00,Wunderground v.1.15,2013-08-31 21:26:00,
2013-08-31 16:31:00,96.1,72.0,29.76,WNW,287,1.0,3.0,46,0.00,,,0.00,Wunderground v.1.15,2013-08-31 21:31:00,
2013-08-31 16:36:00,96.3,71.5,29.76,NW,307,1.0,3.0,45,0.00,,,0.00,Wunderground v.1.15,2013-08-31 21:36:00,
2013-08-31 16:41:00,96.1,72.0,29.76,WSW,246,4.0,4.0,46,0.00,,,0.00,Wunderground v.1.15,2013-08-31 21:41:00,
2013-08-31 16:46:00,96.0,71.2,29.76,WNW,290,1.0,4.0,45,0.00,,,0.00,Wunderground v.1.15,2013-08-31 21:46:00,
2013-08-31 16:51:00,96.5,74.2,29.76,WSW,240,0.0,2.0,49,0.00,,,0.00,Wunderground v.1.15,2013-08-31 21:51:00,
2013-08-31 16:56:00,96.6,72.4,29.76,SW,222,1.0,3.0,46,0.00,,,0.00,Wunderground v.1.15,2013-08-31 21:56:00,
2013-08-31 17:01:00,96.2,72.1,29.76,West,280,1.0,3.0,46,0.00,,,0.00,Wunderground v.1.15,2013-08-31 22:01:00,
2013-08-31 17:06:00,95.8,72.3,29.76,West,260,3.0,3.0,47,0.00,,,0.00,Wunderground v.1.15,2013-08-31 22:06:00,
2013-08-31 17:11:00,95.6,73.4,29.76,West,266,0.0,2.0,49,0.00,,,0.00,Wunderground v.1.15,2013-08-31 22:11:00,
2013-08-31 17:16:00,95.5,72.7,29.75,West,276,1.0,4.0,48,0.00,,,0.00,Wunderground v.1.15,2013-08-31 22:16:00,
2013-08-31 17:21:00,95.6,72.8,29.75,WNW,300,1.0,2.0,48,0.00,,,0.00,Wunderground v.1.15,2013-08-31 22:21:00,
2013-08-31 17:26:00,96.1,72.0,29.75,West,266,2.0,4.0,46,0.00,,,0.00,Wunderground v.1.15,2013-08-31 22:26:00,
2013-08-31 17:31:00,96.4,73.5,29.75,NW,307,2.0,2.0,48,0.00,,,0.00,Wunderground v.1.15,2013-08-31 22:31:00,
2013-08-31 17:36:00,96.8,73.2,29.75,West,278,1.0,2.0,47,0.00,,,0.00,Wunderground v.1.15,2013-08-31 22:36:00,
2013-08-31 17:41:00,96.1,72.0,29.75,NW,316,1.0,2.0,46,0.00,,,0.00,Wunderground v.1.15,2013-08-31 22:41:00,
2013-08-31 17:46:00,95.0,72.2,29.75,West,269,2.0,5.0,48,0.00,,,0.00,Wunderground v.1.15,2013-08-31 22:46:00,
2013-08-31 17:51:00,94.0,71.9,29.75,West,270,2.0,3.0,49,0.00,,,0.00,Wunderground v.1.15,2013-08-31 22:51:00,
2013-08-31 17:56:00,93.3,72.5,29.75,WSW,257,2.0,3.0,51,0.00,,,0.00,Wunderground v.1.15,2013-08-31 22:56:00,
2013-08-31 18:01:00,92.9,73.2,29.75,West,267,2.0,2.0,53,0.00,,,0.00,Wunderground v.1.15,2013-08-31 23:01:00,
2013-08-31 18:06:00,92.6,73.0,29.75,West,275,1.0,2.0,53,0.00,,,0.00,Wunderground v.1.15,2013-08-31 23:06:00,
2013-08-31 18:11:00,92.3,73.8,29.75,West,276,0.0,1.0,55,0.00,,,0.00,Wunderground v.1.15,2013-08-31 23:11:00,
2013-08-31 18:16:00,92.1,73.6,29.75,West,275,0.0,1.0,55,0.00,,,0.00,Wunderground v.1.15,2013-08-31 23:16:00,
2013-08-31 18:21:00,92.0,74.1,29.74,West,276,0.0,0.0,56,0.00,,,0.00,Wunderground v.1.15,2013-08-31 23:21:00,
2013-08-31 18:26:00,92.0,75.1,29.74,West,276,0.0,0.0,58,0.00,,,0.00,Wunderground v.1.15,2013-08-31 23:26:00,
2013-08-31 18:31:00,91.9,75.0,29.74,West,276,0.0,0.0,58,0.00,,,0.00,Wunderground v.1.15,2013-08-31 23:31:00,
2013-08-31 18:36:00,91.2,75.9,29.75,West,275,0.0,1.0,61,0.00,,,0.00,Wunderground v.1.15,2013-08-31 23:36:00,
2013-08-31 18:42:00,90.5,77.1,29.74,West,275,0.0,0.0,65,0.00,,,0.00,Wunderground v.1.15,2013-08-31 23:42:00,
2013-08-31 18:47:00,90.0,77.1,29.74,West,276,0.0,0.0,66,0.00,,,0.00,Wunderground v.1.15,2013-08-31 23:47:00,
2013-08-31 18:52:00,89.5,76.6,29.74,West,275,0.0,0.0,66,0.00,,,0.00,Wunderground v.1.15,2013-08-31 23:52:00,
2013-08-31 18:57:00,89.2,77.7,29.74,West,276,0.0,0.0,69,0.00,,,0.00,Wunderground v.1.15,2013-08-31 23:57:00,
2013-08-31 19:02:00,88.9,78.3,29.74,West,276,0.0,0.0,71,0.00,,,0.00,Wunderground v.1.15,2013-09-01 00:02:00,
2013-08-31 19:07:00,88.6,78.0,29.74,West,275,0.0,0.0,71,0.00,,,0.00,Wunderground v.1.15,2013-09-01 00:07:00,
2013-08-31 19:12:00,88.3,78.1,29.74,West,275,0.0,0.0,72,0.00,,,0.00,Wunderground v.1.15,2013-09-01 00:12:00,
2013-08-31 19:17:00,88.1,77.9,29.75,West,275,0.0,0.0,72,0.00,,,0.00,Wunderground v.1.15,2013-09-01 00:17:00,
2013-08-31 19:21:00,87.9,78.6,29.75,West,275,0.0,0.0,74,0.00,,,0.00,Wunderground v.1.15,2013-09-01 00:21:00,
2013-08-31 19:26:00,87.4,78.1,29.75,West,275,0.0,0.0,74,0.00,,,0.00,Wunderground v.1.15,2013-09-01 00:26:00,
2013-08-31 19:32:00,86.9,78.0,29.75,West,276,0.0,0.0,75,0.00,,,0.00,Wunderground v.1.15,2013-09-01 00:32:00,
2013-08-31 19:37:00,86.2,77.3,29.75,West,276,0.0,0.0,75,0.00,,,0.00,Wunderground v.1.15,2013-09-01 00:37:00,
2013-08-31 19:42:00,85.7,77.3,29.75,West,275,0.0,0.0,76,0.00,,,0.00,Wunderground v.1.15,2013-09-01 00:42:00,
2013-08-31 19:47:00,85.2,76.8,29.75,West,275,0.0,0.0,76,0.00,,,0.00,Wunderground v.1.15,2013-09-01 00:47:00,
2013-08-31 19:52:00,84.7,76.7,29.75,West,275,0.0,0.0,77,0.00,,,0.00,Wunderground v.1.15,2013-09-01 00:52:00,
2013-08-31 19:57:00,84.1,76.5,29.75,West,275,0.0,0.0,78,0.00,,,0.00,Wunderground v.1.15,2013-09-01 00:57:00,
2013-08-31 20:02:00,83.6,76.8,29.75,West,275,0.0,0.0,80,0.00,,,0.00,Wunderground v.1.15,2013-09-01 01:02:00,
2013-08-31 20:07:00,83.1,77.0,29.75,West,275,0.0,0.0,82,0.00,,,0.00,Wunderground v.1.15,2013-09-01 01:07:00,
2013-08-31 20:12:00,82.7,77.0,29.75,West,276,0.0,0.0,83,0.00,,,0.00,Wunderground v.1.15,2013-09-01 01:12:00,
2013-08-31 20:17:00,82.2,76.5,29.75,West,276,0.0,0.0,83,0.00,,,0.00,Wunderground v.1.15,2013-09-01 01:17:00,
2013-08-31 20:22:00,81.8,76.5,29.75,West,276,0.0,0.0,84,0.00,,,0.00,Wunderground v.1.15,2013-09-01 01:22:00,
2013-08-31 20:27:00,81.3,76.4,29.76,West,276,0.0,0.0,85,0.00,,,0.00,Wunderground v.1.15,2013-09-01 01:27:00,
2013-08-31 20:32:00,80.9,76.3,29.76,West,275,0.0,0.0,86,0.00,,,0.00,Wunderground v.1.15,2013-09-01 01:32:00,
2013-08-31 20:37:00,80.5,75.9,29.76,West,276,0.0,0.0,86,0.00,,,0.00,Wunderground v.1.15,2013-09-01 01:37:00,
2013-08-31 20:42:00,80.3,76.1,29.76,West,276,0.0,0.0,87,0.00,,,0.00,Wunderground v.1.15,2013-09-01 01:42:00,
2013-08-31 20:47:00,80.1,76.2,29.76,West,275,0.0,0.0,88,0.00,,,0.00,Wunderground v.1.15,2013-09-01 01:47:00,
2013-08-31 20:52:00,79.9,76.0,29.76,West,275,0.0,0.0,88,0.00,,,0.00,Wunderground v.1.15,2013-09-01 01:52:00,
2013-08-31 20:57:00,79.7,76.2,29.76,West,276,0.0,0.0,89,0.00,,,0.00,Wunderground v.1.15,2013-09-01 01:57:00,
2013-08-31 21:02:00,79.5,76.0,29.76,West,275,0.0,0.0,89,0.00,,,0.00,Wunderground v.1.15,2013-09-01 02:02:00,
2013-08-31 21:07:00,79.3,76.1,29.76,West,276,0.0,0.0,90,0.00,,,0.00,Wunderground v.1.15,2013-09-01 02:07:00,
2013-08-31 21:12:00,79.2,76.0,29.76,West,275,0.0,0.0,90,0.00,,,0.00,Wunderground v.1.15,2013-09-01 02:12:00,
2013-08-31 21:17:00,79.1,75.9,29.76,West,276,0.0,0.0,90,0.00,,,0.00,Wunderground v.1.15,2013-09-01 02:17:00,
2013-08-31 21:22:00,79.1,75.9,29.76,West,276,0.0,0.0,90,0.00,,,0.00,Wunderground v.1.15,2013-09-01 02:22:00,
2013-08-31 21:27:00,78.9,76.0,29.76,West,275,0.0,0.0,91,0.00,,,0.00,Wunderground v.1.15,2013-09-01 02:27:00,
2013-08-31 21:32:00,78.8,75.9,29.76,West,276,0.0,0.0,91,0.00,,,0.00,Wunderground v.1.15,2013-09-01 02:32:00,
2013-08-31 21:37:00,78.6,75.8,29.76,West,275,0.0,0.0,91,0.00,,,0.00,Wunderground v.1.15,2013-09-01 02:37:00,
2013-08-31 21:42:00,78.6,75.8,29.76,West,275,0.0,0.0,91,0.00,,,0.00,Wunderground v.1.15,2013-09-01 02:42:00,
2013-08-31 21:47:00,78.3,75.5,29.76,West,276,0.0,0.0,91,0.00,,,0.00,Wunderground v.1.15,2013-09-01 02:47:00,
2013-08-31 21:52:00,78.1,75.3,29.76,West,275,0.0,0.0,91,0.00,,,0.00,Wunderground v.1.15,2013-09-01 02:52:00,
2013-08-31 21:57:00,77.8,75.0,29.77,West,275,0.0,0.0,91,0.00,,,0.00,Wunderground v.1.15,2013-09-01 02:57:00,
2013-08-31 22:02:00,77.6,75.1,29.77,West,276,0.0,0.0,92,0.00,,,0.00,Wunderground v.1.15,2013-09-01 03:02:00,
2013-08-31 22:07:00,77.6,75.1,29.77,West,271,0.0,0.0,92,0.00,,,0.00,Wunderground v.1.15,2013-09-01 03:07:00,
2013-08-31 22:12:00,77.5,75.0,29.77,West,271,0.0,0.0,92,0.00,,,0.00,Wunderground v.1.15,2013-09-01 03:12:00,
2013-08-31 22:17:00,77.4,74.9,29.77,West,271,0.0,0.0,92,0.00,,,0.00,Wunderground v.1.15,2013-09-01 03:17:00,
2013-08-31 22:22:00,77.1,74.6,29.77,West,271,0.0,0.0,92,0.00,,,0.00,Wunderground v.1.15,2013-09-01 03:22:00,
2013-08-31 22:27:00,76.9,74.4,29.77,West,271,0.0,0.0,92,0.00,,,0.00,Wunderground v.1.15,2013-09-01 03:27:00,
2013-08-31 22:32:00,76.6,74.4,29.77,West,271,0.0,0.0,93,0.00,,,0.00,Wunderground v.1.15,2013-09-01 03:32:00,
2013-08-31 22:37:00,76.5,74.3,29.77,West,271,0.0,0.0,93,0.00,,,0.00,Wunderground v.1.15,2013-09-01 03:37:00,
2013-08-31 22:42:00,76.5,74.6,29.77,West,271,0.0,0.0,94,0.00,,,0.00,Wunderground v.1.15,2013-09-01 03:42:00,
2013-08-31 22:47:00,76.6,74.7,29.77,West,271,0.0,0.0,94,0.00,,,0.00,Wunderground v.1.15,2013-09-01 03:47:00,
2013-08-31 22:52:00,76.6,74.7,29.77,West,271,0.0,0.0,94,0.00,,,0.00,Wunderground v.1.15,2013-09-01 03:52:00,
2013-08-31 22:57:00,76.6,74.7,29.77,West,271,0.0,0.0,94,0.00,,,0.00,Wunderground v.1.15,2013-09-01 03:57:00,
2013-08-31 23:01:00,76.5,74.6,29.76,West,271,0.0,0.0,94,0.00,,,0.00,Wunderground v.1.15,2013-09-01 04:01:00,
2013-08-31 23:06:00,76.3,74.4,29.76,West,271,0.0,0.0,94,0.00,,,0.00,Wunderground v.1.15,2013-09-01 04:06:00,
2013-08-31 23:11:00,76.1,73.9,29.76,West,271,0.0,0.0,93,0.00,,,0.00,Wunderground v.1.15,2013-09-01 04:11:00,
2013-08-31 23:16:00,76.0,73.8,29.77,West,271,0.0,0.0,93,0.00,,,0.00,Wunderground v.1.15,2013-09-01 04:16:00,
2013-08-31 23:21:00,75.8,73.9,29.77,West,271,0.0,0.0,94,0.00,,,0.00,Wunderground v.1.15,2013-09-01 04:21:00,
2013-08-31 23:26:00,75.6,73.8,29.77,West,271,0.0,0.0,94,0.00,,,0.00,Wunderground v.1.15,2013-09-01 04:26:00,
2013-08-31 23:31:00,75.3,73.5,29.77,West,271,0.0,0.0,94,0.00,,,0.00,Wunderground v.1.15,2013-09-01 04:31:00,
2013-08-31 23:36:00,75.1,73.3,29.76,West,271,0.0,0.0,94,0.00,,,0.00,Wunderground v.1.15,2013-09-01 04:36:00,
2013-08-31 23:41:00,75.2,73.7,29.77,West,271,0.0,0.0,95,0.00,,,0.00,Wunderground v.1.15,2013-09-01 04:41:00,
2013-08-31 23:46:00,75.1,73.6,29.77,West,271,0.0,0.0,95,0.00,,,0.00,Wunderground v.1.15,2013-09-01 04:46:00,
2013-08-31 23:51:00,75.1,73.6,29.77,West,271,0.0,0.0,95,0.00,,,0.00,Wunderground v.1.15,2013-09-01 04:51:00,
2013-08-31 23:56:00,75.0,73.5,29.77,West,271,0.0,0.0,95,0.00,,,0.00,Wunderground v.1.15,2013-09-01 04:56:00,